Вернуться в каталог

SAUDISAT 5B

АктивенЛюбительское радиоSSO
NORAD 43833·PAYLOAD·🇸🇦 Saudi Arabia

Запущен Dec 7, 2018 с Jiuquan Satellite Launch Center

Loading…

Ближайшие Пролёты (ближайшие 24 часа)

TLE

СвежийSource: Space-Track

Эпоха: Sep 14, 2026, 14:22 UTC

1 43833U 18102C   26257.59885514  .00004130  00000-0  14893-3 0  9996
2 43833  97.3084 320.6910 0010403 169.6065 190.5392 15.29040765429458

Отслеживайте SAUDISAT 5B в реальном времени с AllMySat

Download on the App Store